This is the latest recevied weather packets stored in our database for station/object KN6CW-3. If no packets are shown the sender has not sent any weather packets the latest 10 day(s).
| Time | Temp. | Humidity | Pressure | Rain* | Wind** | Luminosity | Snow |
|---|---|---|---|---|---|---|---|
| 1778161015 | 8.89° C | 65% | 1012.1 hPa | 0 mm | - | 650 W/m² | - |
| 1778160716 | 8.89° C | 66% | 1012.1 hPa | 0 mm | - | 635 W/m² | - |
| 1778160415 | 8.33° C | 68% | 1012.1 hPa | 0 mm | - | 622 W/m² | - |
| 1778160115 | 8.33° C | 65% | 1012.2 hPa | 0 mm | - | 608 W/m² | - |
| 1778159814 | 8.33° C | 65% | 1012.1 hPa | 0 mm | - | 592 W/m² | - |
| 1778159514 | 8.33° C | 68% | 1012.1 hPa | 0 mm | - | 577 W/m² | - |
| 1778159213 | 7.78° C | 70% | 1012.1 hPa | 0 mm | - | 564 W/m² | - |
| 1778158913 | 7.78° C | 69% | 1012 hPa | 0 mm | - | 550 W/m² | - |
| 1778158613 | 7.78° C | 71% | 1011.9 hPa | 0 mm | - | 533 W/m² | - |
| 1778158313 | 7.22° C | 74% | 1011.9 hPa | 0 mm | - | 517 W/m² | - |
| 1778158012 | 7.22° C | 72% | 1011.9 hPa | 0 mm | - | 497 W/m² | - |
| 1778157712 | 7.22° C | 76% | 1011.9 hPa | 0 mm | - | 482 W/m² | - |
| 1778157412 | 6.67° C | 74% | 1011.8 hPa | 0 mm | - | 464 W/m² | - |
| 1778157112 | 6.67° C | 76% | 1011.7 hPa | 0 mm | - | 452 W/m² | - |
| 1778156811 | 6.67° C | 75% | 1011.7 hPa | 0 mm | - | 434 W/m² | - |
| 1778156511 | 6.67° C | 77% | 1011.6 hPa | 0 mm | - | 417 W/m² | - |
| 1778156211 | 6.67° C | 77% | 1011.6 hPa | 0 mm | - | 399 W/m² | - |
| 1778155910 | 6.11° C | 77% | 1011.7 hPa | 0 mm | - | 381 W/m² | - |
| 1778155610 | 6.11° C | 81% | 1011.7 hPa | 0 mm | - | 362 W/m² | - |
| 1778155310 | 6.11° C | 80% | 1011.7 hPa | 0 mm | - | 345 W/m² | - |
| 1778155009 | 6.11° C | 80% | 1011.8 hPa | 0 mm | - | 330 W/m² | - |
| 1778154709 | 5.56° C | 84% | 1011.6 hPa | 0 mm | - | 311 W/m² | - |
| 1778154409 | 5.56° C | 84% | 1011.6 hPa | 0 mm | - | 295 W/m² | - |
| 1778154109 | 5.56° C | 84% | 1011.5 hPa | 0 mm | - | 278 W/m² | - |
| 1778153808 | 5° C | 86% | 1011.5 hPa | 0 mm | - | 260 W/m² | - |
* Rain latest hour (hover to see other rain measurements)
** Current wind speed in m/s (hover to see current wind gust speed)